AirNav   Everest Fuels
 
 706 users online  

O74 Elliot's Landing Airport
Mount Victory, Ohio, USA

GOING TO MOUNT VICTORY?


FAA INFORMATION EFFECTIVE 03 JANUARY 2019

Location

FAA Identifier: O74
Lat/Long: 40-31-29.0000N / 083-30-42.0000W
40-31.483333N / 083-30.700000W
40.5247222 / -83.5116667
(estimated)
Elevation: 1045 ft. / 319 m (estimated)
Variation: 05W (1995)
From city: 1 mile SE of MOUNT VICTORY, OH
Time zone: UTC -5 (UTC -4 during Daylight Saving Time)
Zip code: 43340

Airport Operations

Airport use: Open to the public
Activation date: 06/1995
Control tower: no
ARTCC: INDIANAPOLIS CENTER
FSS: DAYTON FLIGHT SERVICE STATION
NOTAMs facility: DAY (NOTAM-D service available)
Attendance: UNATNDD
Wind indicator: yes
Segmented circle: no

Airport Communications

CTAF: 122.9
WX AWOS-3 at EDJ (17 nm SW): 118.075 (937-599-4654)
WX AWOS-3 at MRT (19 nm S): 119.275 (937-644-2967)

Nearby radio navigation aids

VOR radial/distance  VOR name  Freq  Var
BUDr260/(21.1)BUCKEYE VOR109.8005W
FBCr159/28.1FLAG CITY VORTAC108.2002W
RODr065/28.1ROSEWOOD VORTAC117.5005W

 
NDB name  Hdg/Dist  Freq  Var  ID
TIFFIN207/36.826905WTII - .. ..

Airport Services

Runway Information

Runway 15/33

Dimensions: 2750 x 110 ft. / 838 x 34 m
Surface: turf, in good condition
Runway edge markings: 15/33 MARKED WITH TIRES ON EACH END.
RUNWAY 15  RUNWAY 33
Traffic pattern: leftleft
Obstructions: 63 ft. trees, 867 ft. from runway, 82 ft. left of centerline, 13:1 slope to clear35 ft. pline, 400 ft. from runway, 162 ft. left of centerline, 11:1 slope to clear

Airport Ownership and Management from official FAA records

Ownership: Privately-owned
Owner: ELLIOT & ELLIOTT INC
BOX 257 491 S MAIN ST
MT VICTORY, OH 43340-0257
Phone 937-354-2851
Manager: JOAN E. WAGNER
BOX 257 491 S MAIN ST
MT VICTORY, OH 43340-0257
Phone 937-354-2851

Airport Operational Statistics

Aircraft operations: avg 30/week *
100% transient general aviation
* for 12-month period ending 03 September 2016

Instrument Procedures

There are no published instrument procedures at O74.

Some nearby airports with instrument procedures:

I95 - Hardin County Airport (8 nm NW)
KEDJ - Bellefontaine Regional Airport (17 nm SW)
KMRT - Union County Airport (19 nm S)
KMNN - Marion Municipal Airport (21 nm E)
56D - Wyandot County Airport (23 nm NE)
 
Loc | Ops | Rwys | IFR | FBO | Links
Com | Nav | Svcs | Stats | Notes
Area around O74 (Elliot's Landing Airport)
 
Road maps at: MapQuest Bing Google
 
Aerial photo
WARNING: Photo may not be current or correct
Aerial photo of O74 (Elliot's Landing Airport)
Do you have a better or more recent aerial photo of Elliot's Landing Airport that you would like to share? If so, please send us your photo.

 
Sectional chart

 
Airport distance calculator
Flying to Elliot's Landing Airport? Find the distance to fly.

From to O74

Sunrise and sunset
Times for 19-Jan-2019
 Local
(UTC-5)
 Zulu
(UTC)
Morning civil twilight07:2512:25
Sunrise07:5512:55
Sunset17:3522:35
Evening civil twilight18:0523:05

Current date and time
Zulu (UTC)  20-Jan-2019 03:54:39
Local (UTC-5)  19-Jan-2019 22:54:39
 
METAR
KEDJ 
17nm SW 
200335Z AUTO 00000KT 1/2SM OVC001 M08/M08 A2969 RMK AO1
KMRT 
19nm S 
200336Z AUTO 02010KT 1 1/4SM OVC007 M06/M07 A2963 RMK AO2 T10651075
KMNN 
21nm E 
200333Z AUTO 02022KT 1/2SM FZFG VV010 M07/M08 A2968 RMK AO2 PK WND 02033/0259 P0001 T10671083 PWINO FZRANO $
KDLZ 
23nm SE 
200336Z AUTO 36011G17KT 3/4SM SN OVC006 M05/M06 A2963 RMK AO2
KAOH 
25nm NW 
200327Z AUTO 01021G30KT 3/4SM BR VV010 M07/M09 A2973 RMK AO2 PK WND 01031/0255 T10721094 PWINO FZRANO $
KFDY 
30nm N 
200319Z AUTO 01020G30KT 1/2SM FZFG BKN010 OVC017 M06/M08 A2976 RMK AO2 PK WND 02032/0258 T10611078 PWINO FZRANO $
KOSU 
33nm SE 
200253Z 01022G30KT 2SM -SN BR OVC011 M03/M04 A2961 RMK AO2 PK WND 01030/0250 FZRAE49SNB49 SLP036 P0001 60005 I1000 I3005 T10281044 53003
TAF
KFDY 
30nm N 
191720Z 1918/2018 04015G24KT 3/4SM -SN BLSN OVC015 TEMPO 1918/1922 1/4SM +SN OVC009 FM200000 02022G31KT 3/4SM -SN BLSN OVC009 TEMPO 2000/2004 1/2SM SN FM200900 35018G26KT P6SM OVC025
NOTAMs
Click for the latest NOTAMs
NOTAMs are issued by the DoD/FAA and will open in a separate window not controlled by AirNav.

 

 
 

Would you like to see your business listed on this page?

 If your business provides an interesting product or service to pilots, flight crews, aircraft, or users of the Elliot's Landing Airport, you should consider listing it here.  To start the listing process, click on the button below
 
Add a business
 

Other Pages about Elliot's Landing Airport

Update a link
 
Copyright © AirNav, LLC. All rights reserved. Privacy Policy  Contact